{"data":{"norad_id":54836,"epoch":"2026-05-25T00:19:45.441696Z","epoch_age_seconds":73104,"freshness":"FRESH","line1":"1 54836U 22177S   26145.01372039  .00829832  36884-3  99792-3 0  9991","line2":"2 54836  42.9987  35.5468 0003407 258.7171 101.3327 16.07463316188947","mean_motion":16.07463316,"eccentricity":0.0003407,"inclination_deg":42.9987,"raan_deg":35.5468,"arg_perigee_deg":258.7171,"mean_anomaly_deg":101.3327,"bstar":0.00099792,"rev_number":18894,"period_min":89.582137624346,"perigee_km":251.55172779522,"apogee_km":256.07073732088,"semimajor_km":6631.948232558,"source":"CELESTRAK","updated_at":"2026-05-25T13:38:17.722714Z"}}